TimePDT,TemperatureF,Dew PointF,Humidity,Sea Level PressureIn,VisibilityMPH,Wind Direction,Wind SpeedMPH,Gust SpeedMPH,PrecipitationIn,Events,Conditions,WindDirDegrees,DateUTC
12:53 AM,57.0,57.0,100,29.96,10.0,West,9.2,-,N/A,,Mostly Cloudy,270,2013-08-03 07:53:00
1:11 AM,57.2,57.2,100,29.96,10.0,West,10.4,-,N/A,,Mostly Cloudy,260,2013-08-03 08:11:00
1:53 AM,57.0,57.0,100,29.96,10.0,West,11.5,-,N/A,,Mostly Cloudy,260,2013-08-03 08:53:00
2:53 AM,57.0,57.0,100,29.95,10.0,West,9.2,-,N/A,,Mostly Cloudy,270,2013-08-03 09:53:00
3:53 AM,57.0,57.0,100,29.95,10.0,WSW,8.1,-,N/A,,Overcast,250,2013-08-03 10:53:00
4:53 AM,57.0,57.0,100,29.95,10.0,WSW,9.2,-,N/A,,Overcast,250,2013-08-03 11:53:00
5:53 AM,57.0,57.0,100,29.96,10.0,West,10.4,-,N/A,,Mostly Cloudy,270,2013-08-03 12:53:00
6:53 AM,57.0,57.0,100,29.97,10.0,West,8.1,-,N/A,,Mostly Cloudy,260,2013-08-03 13:53:00
7:53 AM,57.0,57.0,100,29.99,10.0,West,9.2,-,N/A,,Mostly Cloudy,260,2013-08-03 14:53:00
8:53 AM,57.9,57.9,100,30.00,10.0,WSW,8.1,-,N/A,,Mostly Cloudy,250,2013-08-03 15:53:00
9:53 AM,59.0,57.9,96,30.00,10.0,WSW,3.5,-,N/A,,Mostly Cloudy,240,2013-08-03 16:53:00
10:53 AM,60.1,57.9,93,30.00,10.0,Calm,Calm,-,N/A,,Mostly Cloudy,0,2013-08-03 17:53:00
11:29 AM,62.6,57.2,82,29.99,10.0,Variable,3.5,-,N/A,,Scattered Clouds,0,2013-08-03 18:29:00
11:53 AM,63.0,55.9,78,29.99,10.0,WSW,6.9,-,N/A,,Scattered Clouds,250,2013-08-03 18:53:00
12:53 PM,66.9,57.0,70,29.99,10.0,NW,10.4,-,N/A,,Partly Cloudy,310,2013-08-03 19:53:00
1:53 PM,68.0,57.0,68,29.98,10.0,WNW,12.7,-,N/A,,Partly Cloudy,300,2013-08-03 20:53:00
2:53 PM,69.1,57.0,65,29.96,10.0,NW,13.8,-,N/A,,Partly Cloudy,310,2013-08-03 21:53:00
3:53 PM,66.9,57.9,73,29.96,10.0,WNW,15.0,-,N/A,,Partly Cloudy,300,2013-08-03 22:53:00
4:53 PM,66.0,57.9,75,29.95,10.0,WNW,13.8,-,N/A,,Partly Cloudy,300,2013-08-03 23:53:00
5:53 PM,64.9,60.1,84,29.94,10.0,NW,16.1,-,N/A,,Partly Cloudy,310,2013-08-04 00:53:00
6:53 PM,61.0,59.0,93,29.94,10.0,WNW,16.1,-,N/A,,Partly Cloudy,300,2013-08-04 01:53:00
7:53 PM,57.9,57.9,100,29.94,10.0,NW,12.7,-,N/A,,Partly Cloudy,310,2013-08-04 02:53:00
8:53 PM,55.9,55.9,100,29.95,10.0,NW,12.7,-,N/A,,Scattered Clouds,310,2013-08-04 03:53:00
9:09 PM,55.4,55.4,100,29.96,10.0,WNW,12.7,-,N/A,,Mostly Cloudy,300,2013-08-04 04:09:00
9:53 PM,55.9,55.9,100,29.98,10.0,NW,11.5,-,N/A,,Mostly Cloudy,310,2013-08-04 04:53:00
10:53 PM,54.0,54.0,100,29.99,10.0,NW,9.2,-,N/A,,Mostly Cloudy,310,2013-08-04 05:53:00
11:53 PM,55.0,55.0,100,29.99,10.0,West,8.1,-,N/A,,Overcast,280,2013-08-04 06:53:00